This demonstration page uses our WeatherBlox Daily Observations layout. Learn more.

Left ArrowRight Arrow

39.01783, -85.05884

Hourly Observations for August 26, 2021

Temp ( °F °C ) Dew Point ( °F °C ) Humidity (%) Winds ( mph kmh ) Pressure ( in mb ) Visibility ( mi km ) Precip ( " mm )
12:52 am 00:52 Partly Cloudy 72 22.2 69 20.6 91 91 SSW 3 6 30.12 1020 9 14 0.00 0.00
1:52 am 01:52 Partly Cloudy 72 22.2 69 20.6 91 91 Calm 30.13 1020 7 11 0.00 0.00
2:52 am 02:52 Partly Cloudy 72 22.2 69 20.6 91 91 Calm 30.12 1020 7 11 0.00 0.00
3:33 am 03:33 Mostly Clear with Mist and Fog 72 22.2 69 20.6 91 91 Calm 30.12 1020 3 4 0.00 0.00
3:52 am 03:52 Mostly Clear with Mist and Fog 72 22.2 69 20.6 91 91 Calm 30.12 1020 6 10 0.00 0.00
4:50 am 04:50 Partly Cloudy with Mist and Fog 72 22 70 21 94 94 WNW 3 6 30.13 1020 2 2 0.00 0.00
4:52 am 04:52 Partly Cloudy with Mist and Fog 71 21.7 69 20.6 94 94 Calm 30.12 1020 2 2 0.00 0.00
4:59 am 04:59 Partly Cloudy with Mist and Fog 71 21.7 69 20.6 94 94 Calm 30.13 1020 3 4 0.00 0.00
5:12 am 05:12 Clear with Mist and Fog 71 21.7 68 20 90 90 Calm 30.13 1020 4 6 0.00 0.00
5:52 am 05:52 Mostly Cloudy 71 21.7 68 20 90 90 Calm 30.13 1020 9 14 0.00 0.00
6:52 am 06:52 Mostly Cloudy 72 22.2 68 20 87 87 Calm 30.13 1020 10 16 0.00 0.00
7:52 am 07:52 Mostly Cloudy 73 22.8 69 20.6 87 87 Calm 30.14 1021 10 16 0.00 0.00
8:52 am 08:52 Partly Cloudy 77 25 69 20.6 77 77 N 6 9 30.14 1021 10 16 0.00 0.00
9:52 am 09:52 Mostly Sunny 81 27.2 69 20.6 67 67 Calm 30.14 1021 10 16 0.00 0.00
10:52 am 10:52 Mostly Sunny 84 28.9 72 22.2 67 67 SE 5 7 30.14 1021 10 16 0.00 0.00
11:09 am 11:09 Partly Cloudy N/A N/A N/A VRB 3 6 N/A N/A 0.00 0.00
11:52 am 11:52 Mostly Sunny 86 30 71 21.7 61 61 S 6 9 30.14 1021 10 16 0.00 0.00
12:52 pm 12:52 Partly Cloudy 87 30.6 70 21.1 57 57 SE 3 6 30.13 1020 10 16 0.00 0.00
1:52 pm 13:52 Partly Cloudy 89 31.7 70 21.1 53 53 SE 7 11 30.12 1020 10 16 0.00 0.00
2:52 pm 14:52 Mostly Sunny 90 32.2 70 21.1 52 52 SW 7 11 30.08 1019 10 16 0.00 0.00
3:52 pm 15:52 Mostly Cloudy 92 33.3 69 20.6 47 47 W 6 9 30.07 1018 10 16 0.00 0.00
4:07 pm 16:07 Cloudy 87 30.6 68 20 53 53 NNW 24 39 30.05 1018 9 14 0.00 0.00
4:14 pm 16:14 Mostly Cloudy with Nearby Thunderstorms 82 27.8 66 18.9 58 58 NNW 21 33 30.07 1018 9 14 0.00 0.00
4:24 pm 16:24 Mostly Cloudy with Nearby Thunderstorms 81 27.2 65 18.3 58 58 N 21 33 30.08 1018 10 16 0.00 0.00
4:52 pm 16:52 Cloudy with Nearby Thunderstorms 79 26.1 66 18.9 65 65 NNW 16 26 30.11 1020 10 16 0.00 0.00
5:39 pm 17:39 Cloudy with Light Rain 77 25 67 19.4 71 71 NNE 14 22 30.10 1019 9 14 0.00 0.00
5:52 pm 17:52 Cloudy with Light Rain 76 24.4 68 20 77 77 NE 14 22 30.11 1020 10 16 0.00 0.00
6:52 pm 18:52 Cloudy 78 25.6 68 20 71 71 NE 7 11 30.08 1019 10 16 0.00 0.00
7:52 pm 19:52 Cloudy 78 25.6 67 19.4 69 69 NE 5 7 30.09 1019 10 16 0.00 0.00
8:52 pm 20:52 Cloudy 76 24.4 68 20 77 77 E 8 13 30.11 1020 10 16 0.00 0.00
9:21 pm 21:21 Cloudy 75 23.9 69 20.6 82 82 NNW 7 11 30.13 1020 10 16 0.00 0.00
9:52 pm 21:52 Cloudy 73 22.8 68 20 84 84 NNW 7 11 30.14 1021 10 16 0.00 0.00
10:52 pm 22:52 Mostly Cloudy 73 22.8 68 20 84 84 Calm 30.11 1020 10 16 0.00 0.00
11:52 pm 23:52 Mostly Cloudy 72 22.2 68 20 87 87 Calm 30.11 1020 10 16 0.00 0.00

Powered by AerisWeather